Вернуться в каталог

SITRO-AIS-26

АктивенСвязьPO
NORAD 59067·PAYLOAD·🇷🇺 Russia
Это название спутника еще не подтверждено официальными источниками.

Запущен Feb 29, 2024 с Vostochny Cosmodrome

Loading…

Ближайшие Пролёты (ближайшие 24 часа)

TLE

СвежийSource: Space-Track

Эпоха: Sep 14, 2026, 21:18 UTC

1 59067U 24039S   26257.88756024  .00002535  00000-0  19718-3 0  9991
2 59067  95.3816 296.5859 0144226  15.7541 344.8101 14.93817390138106

Отслеживайте SITRO-AIS-26 в реальном времени с AllMySat

Download on the App Store